Content
SEND FEEDBACK

Daily
Averages
Monthly
Summary
United States of America

KAKE, ALASKA


Home > North America > United States > Alaska
Elevation: 1 foot     Latitude: 56 59N     Longitude: 133 57W

WEATHER
 
SELECT A DAY
Number of Records: 431,176;   Date Range: 1/1/95 - 9/30/14
 
SHARE

PRINT THIS DATA

[ ← Previous Day ]
WEATHER ALMANAC - JANUARY 31, 2013
[ Next Day → ]
[ °C ]   °F
Weather ElementAverageHighLow
Temperature37.2 °F39.2 °F (3:56 pm)35.6 °F (12:36 am)
Dewpoint35.3 °F37.4 °F (4:36 pm)32 °F (12:36 am)
Humidity92.4 %93 % (1:36 am)87 % (12:36 am)
Barometer30.00 in30.16 in (11:56 pm)29.88 in (2:56 am)
Wind Speed3.4 mph9.2 mph (9:36 pm)
Weather ElementAverage
Visibility4 mi
Wind DirectionENE (57.4 °)

Weather ElementTotal
Precipitation0.45 in
Heating Degree Days27.6 (Base 65)
Averaged from 69 records on January 31, 2013
WEATHER CONDITIONS BREAKOUT
WIND DIRECTION BREAKOUT
WEATHER BY HOUR - JANUARY 31, 2013
[ °C ]   °F
Local TimeTemperatureDewpointHumidityBarometerVisibilityWind DirectionWind SpeedGust SpeedPrecipitationEventsConditions
12:36 AM35.6 °F32.0 °F87 %29.89 in9.0 miEast (80°)6.9 mph0.01 inOvercast
12:56 AM35.6 °F32.0 °F87 %29.89 in8.0 miEast (80°)5.8 mph0.02 inOvercast
1:16 AM35.6 °F32.0 °F87 %29.89 in5.0 miEast (80°)3.5 mph0.01 inOvercast
1:36 AM35.6 °F33.8 °F93 %29.89 in3.0 miEast (90°)4.6 mph0.01 inOvercast
1:56 AM35.6 °F33.8 °F93 %29.89 in5.0 miENE (60°)4.6 mph0.01 inOvercast
2:16 AM35.6 °F33.8 °F93 %29.89 in5.0 miEast (80°)4.6 mphOvercast
2:36 AM35.6 °F33.8 °F93 %29.89 in5.0 miEast (80°)4.6 mphOvercast
2:56 AM35.6 °F32.0 °F87 %29.88 in5.0 miEast (90°)4.6 mph0.01 inOvercast
3:16 AM35.6 °F33.8 °F93 %29.88 in4.0 miENE (70°)8.1 mphOvercast
3:36 AM35.6 °F33.8 °F93 %29.88 in3.0 miENE (70°)3.5 mphOvercast
3:56 AM35.6 °F33.8 °F93 %29.88 in2.0 miENE (70°)4.6 mph0.01 inOvercast
4:16 AM35.6 °F33.8 °F93 %29.88 in3.0 miEast (80°)3.5 mph0.01 inOvercast
4:36 AM35.6 °F33.8 °F93 %29.88 in4.0 miENE (70°)3.5 mph0.02 inOvercast
4:56 AM35.6 °F33.8 °F93 %29.89 in2.5 miENE (70°)3.5 mph0.04 inOvercast
5:16 AM35.6 °F33.8 °F93 %29.89 in3.0 miENE (70°)4.6 mph0.01 inOvercast
5:36 AM35.6 °F33.8 °F93 %29.89 in3.0 miENE (70°)3.5 mph0.02 inOvercast
5:56 AM35.6 °F33.8 °F93 %29.90 in5.0 miEast (80°)5.8 mph0.04 inOvercast
6:16 AM35.6 °F33.8 °F93 %29.90 in5.0 miENE (70°)5.8 mph0.02 inMostly Cloudy
6:36 AM35.6 °F33.8 °F93 %29.90 in4.0 miEast (80°)3.5 mph0.02 inOvercast
6:56 AM35.6 °F33.8 °F93 %29.90 in3.0 miCalm0.02 inOvercast
7:16 AM35.6 °F33.8 °F93 %29.91 in2.0 miCalm0.01 inOvercast
7:36 AM35.6 °F33.8 °F93 %29.92 in2.0 miEast (80°)3.5 mph0.02 inOvercast
7:56 AM35.6 °F33.8 °F93 %29.92 in2.0 miCalm0.02 inOvercast
8:16 AM35.6 °F33.8 °F93 %29.93 in2.5 miEast (80°)3.5 mph0.01 inOvercast
8:36 AM35.6 °F32.0 °F87 %29.94 in2.0 miEast (90°)3.5 mph0.02 inOvercast
8:56 AM35.6 °F33.8 °F93 %29.94 in1.8 miCalm0.03 inOvercast
9:16 AM35.6 °F33.8 °F93 %29.95 in2.0 miCalm0.01 inOvercast
9:36 AM35.6 °F33.8 °F93 %29.95 in3.0 miCalm0.02 inOvercast
9:56 AM37.4 °F35.6 °F93 %29.96 in2.5 miCalm0.02 inOvercast
10:16 AM37.4 °F35.6 °F93 %29.97 in1.5 miCalmOvercast
10:36 AM37.4 °F33.8 °F87 %29.98 in0.8 miCalmOvercast
10:56 AM37.4 °F35.6 °F93 %29.98 in1.0 miCalmOvercast
11:16 AM37.4 °F35.6 °F93 %29.99 in1.0 miCalmOvercast
11:36 AM37.4 °F35.6 °F93 %29.99 in1.2 miCalmOvercast
11:56 AM37.4 °F35.6 °F93 %30.00 in0.8 miCalm0.01 inOvercast
12:16 PM37.4 °F35.6 °F93 %30.00 in1.0 miCalmOvercast
12:36 PM37.4 °F35.6 °F93 %30.01 in1.2 miCalmOvercast
12:56 PM37.4 °F35.6 °F93 %30.02 in0.8 miCalmOvercast
1:16 PM37.4 °F35.6 °F93 %30.02 in0.5 miCalmOvercast
1:36 PM37.4 °F35.6 °F93 %30.02 in0.8 miCalmOvercast
1:56 PM37.4 °F35.6 °F93 %30.03 in1.2 miCalmOvercast
2:16 PM37.4 °F35.6 °F93 %30.03 in0.2 miCalmOvercast
2:36 PM37.4 °F35.6 °F93 %30.04 in0.2 miCalmOvercast
2:56 PM37.4 °F35.6 °F93 %30.04 in0.5 miCalmOvercast
3:16 PM37.4 °F35.6 °F93 %30.05 in1.5 miCalmOvercast
3:36 PM37.4 °F35.6 °F93 %30.05 in1.5 miCalmOvercast
3:56 PM39.2 °F35.6 °F87 %30.05 in0.2 miCalmOvercast
4:16 PM37.4 °F35.6 °F93 %30.05 in0.5 miCalmOvercast
4:36 PM39.2 °F37.4 °F93 %30.05 in3.0 miCalmOvercast
5:16 PM39.2 °F37.4 °F93 %30.06 in3.0 miESE (120°)4.6 mphOvercast
5:36 PM39.2 °F37.4 °F93 %30.06 in5.0 miESE (120°)4.6 mphOvercast
6:16 PM39.2 °F37.4 °F93 %30.08 in7.0 miESE (110°)5.8 mphOvercast
6:36 PM39.2 °F37.4 °F93 %30.08 in10.0 miEast (100°)5.8 mphOvercast
6:56 PM39.2 °F37.4 °F93 %30.09 in10.0 miESE (120°)4.6 mphOvercast
7:16 PM39.2 °F37.4 °F93 %30.09 in10.0 miESE (120°)5.8 mphOvercast
7:36 PM39.2 °F37.4 °F93 %30.09 in10.0 miEast (100°)5.8 mphOvercast
7:56 PM39.2 °F37.4 °F93 %30.09 in10.0 miEast (100°)5.8 mphOvercast
8:16 PM39.2 °F37.4 °F93 %30.10 in10.0 miESE (110°)6.9 mphOvercast
8:36 PM39.2 °F37.4 °F93 %30.10 in10.0 miESE (110°)6.9 mphOvercast
8:56 PM39.2 °F37.4 °F93 %30.10 in8.0 miESE (110°)6.9 mphOvercast
9:16 PM39.2 °F37.4 °F93 %30.11 in10.0 miEast (100°)6.9 mphOvercast
9:36 PM39.2 °F37.4 °F93 %30.11 in5.0 miESE (110°)9.2 mphOvercast
9:56 PM39.2 °F37.4 °F93 %30.12 in5.0 miESE (120°)8.1 mphOvercast
10:16 PM39.2 °F37.4 °F93 %30.13 in5.0 miESE (120°)8.1 mphOvercast
10:36 PM39.2 °F37.4 °F93 %30.13 in5.0 miESE (120°)8.1 mphOvercast
10:56 PM39.2 °F37.4 °F93 %30.14 in3.0 miESE (120°)8.1 mphOvercast
11:16 PM39.2 °F37.4 °F93 %30.14 in8.0 miESE (110°)8.1 mphOvercast
11:36 PM39.2 °F37.4 °F93 %30.15 in8.0 miESE (120°)6.9 mphOvercast
11:56 PM39.2 °F37.4 °F93 %30.16 in10.0 miSE (130°)6.9 mphOvercast
Hourly data recorded from PAFE, located miles away from Kake, Alaska







STORIES FROM OUR PARTNERS